Regional Weather Roundup
Issued by NWS

Home | Current Version | Previous Version | Graphics & Text | Print | Product List | Glossary Off
Versions: 1 2 3 4 5 6 7 8 9 10 11 12 13 14 15 16 17 18 19 20 21 22 23 24 25 26 27 28 29 30 31 32 33 34 35 36 37 38 39 40 41 42 43 44 45 46 47 48 49 50

000
ASUS45 KCYS 222310
RWRWY

WYOMING REGIONAL WEATHER ROUNDUP
NATIONAL WEATHER SERVICE CHEYENNE WY
500 PM MDT FRI MAY 22 2015

NOTE:  "FAIR" INDICATES FEW OR NO CLOUDS BELOW 12,000 FEET
WITH NO SIGNIFICANT WEATHER AND/OR OBSTRUCTIONS TO VISIBILITY.

WYZ001-230000-
YELLOWSTONE NATIONAL PARK

CITY           SKY/WX    TMP DP  RH WIND       PRES   REMARKS
LK YELLOWSTONE   N/A     55  30  38 VRB3      29.98F
W YELLOWSTONE  NOT AVBL

$$
WYZ002>013-054>058-071-098>099-230000-
NORTHERN WYOMING

CITY           SKY/WX    TMP DP  RH WIND       PRES   REMARKS
JACKSON        PTSUNNY   61  34  36 CALM      29.87F
CODY           CLOUDY    52  45  76 NW5       29.92F
GREYBULL         N/A     65  45  48 SE20G28   29.86S
WORLAND        CLOUDY    59  52  77 W6        29.88S
SHERIDAN       PTSUNNY   60  45  57 SE22G32   29.94R
BUFFALO          N/A     52  45  77 SE16      29.99F
GILLETTE       CLOUDY    53  43  68 SE16      30.00F
HULETT         CLOUDY    59  41  51 S8        30.03F
NEWCASTLE      FAIR      54  41  62 SE20G25   30.05R

$$
WYZ014>020-022>026-101>103-230000-
CENTRAL WYOMING

CITY           SKY/WX    TMP DP  RH WIND       PRES   REMARKS
BIG PINEY      LGT RAIN  44  41  89 SW9       29.98F
PINEDALE       MOCLDY    50  37  62 CALM      29.97R
DUBOIS         CLOUDY    50  39  66 E8        29.97S
LANDER         PTSUNNY   55  45  68 S7        29.90F
RIVERTON       PTSUNNY   57  45  64 NE7       29.92F
CASPER         LGT RAIN  50  46  86 E18G26    29.94S
DOUGLAS        CLOUDY    51  43  74 SE21      30.00F

$$
WYZ021-027>030-104>119-230000-
SOUTHERN WYOMING

CITY           SKY/WX    TMP DP  RH WIND       PRES   REMARKS
EVANSTON       RAIN      44  39  82 SE3       29.98R
KEMMERER       LGT RAIN  43  37  81 N5        30.00R
FORT BRIDGER   CLOUDY    46  46 100 NW5       30.01R
ROCK SPRINGS   LGT RAIN  48  42  80 SW13      29.95F
DIXON          TSTM      49  40  70 S17G31    30.01R
RAWLINS        CLOUDY    53  39  59 SW10      29.96F
SARATOGA       CLOUDY    52  39  62 MISG      29.98S
LARAMIE        CLOUDY    48  39  71 SE8       29.98S
CHEYENNE       CLOUDY    48  42  80 SE8       30.01R
TORRINGTON     CLOUDY    49  44  83 SE18      30.02S
PINE BLUFFS    CLOUDY    50  45  81 E14       30.01S

$$


USA.gov is the U.S. government's official web portal to all federal, state and local government web resources and services.